Year,Month,Day,Hour,Minute,Value (Times are PST for temperature in C)
2008,12,18,00,00,-3.60
2008,12,18,00,01,-3.60
2008,12,18,00,02,-3.60
2008,12,18,00,03,-3.60
2008,12,18,00,04,-3.60
2008,12,18,00,05,-3.60
2008,12,18,00,06,-3.60
2008,12,18,00,07,-3.60
2008,12,18,00,08,-3.60
2008,12,18,00,09,-3.60
2008,12,18,00,10,-3.60
2008,12,18,00,11,-3.60
2008,12,18,00,12,-3.60
2008,12,18,01,02,-3.80
2008,12,18,01,03,-3.80
2008,12,18,01,04,-3.80
2008,12,18,01,05,-3.80
2008,12,18,01,06,-3.80
2008,12,18,01,07,-3.80
2008,12,18,01,08,-3.80
2008,12,18,01,09,-3.80
2008,12,18,01,10,-3.80
2008,12,18,01,11,-3.80
2008,12,18,01,12,-3.90
2008,12,18,01,13,-3.90
2008,12,18,01,14,-3.90
2008,12,18,01,15,-3.90
2008,12,18,01,16,-3.90
2008,12,18,01,17,-3.90
2008,12,18,01,18,-3.90
2008,12,18,01,19,-3.90
2008,12,18,01,20,-3.90
2008,12,18,01,21,-3.90
2008,12,18,01,22,-3.90
2008,12,18,01,23,-3.90
2008,12,18,01,24,-3.90
2008,12,18,01,25,-3.90
2008,12,18,01,26,-3.90
2008,12,18,01,27,-3.90
2008,12,18,01,28,-3.80
2008,12,18,01,29,-3.80
2008,12,18,01,30,-3.80
2008,12,18,01,31,-3.80
2008,12,18,01,32,-3.80
2008,12,18,01,33,-3.80
2008,12,18,01,34,-3.80
2008,12,18,01,35,-3.80
2008,12,18,01,36,-3.80
2008,12,18,01,37,-3.80
2008,12,18,01,38,-3.80
2008,12,18,01,39,-3.80
2008,12,18,01,40,-3.80
2008,12,18,01,41,-3.80
2008,12,18,01,42,-3.80
2008,12,18,01,43,-3.80
2008,12,18,01,44,-3.80
2008,12,18,01,45,-3.80
2008,12,18,01,46,-3.80
2008,12,18,01,47,-3.80
2008,12,18,01,48,-3.80
2008,12,18,01,49,-3.80
2008,12,18,01,50,-3.80
2008,12,18,01,51,-3.80
2008,12,18,01,52,-3.80
2008,12,18,01,53,-3.80
2008,12,18,01,54,-3.80
2008,12,18,01,55,-3.80
2008,12,18,01,56,-3.80
2008,12,18,01,57,-3.80
2008,12,18,01,58,-3.80
2008,12,18,01,59,-3.80
2008,12,18,02,00,-3.80
2008,12,18,02,01,-3.80
2008,12,18,02,02,-3.80
2008,12,18,02,03,-3.80
2008,12,18,02,04,-3.80
2008,12,18,02,05,-3.80
2008,12,18,02,06,-3.80
2008,12,18,02,07,-3.80
2008,12,18,02,08,-3.80
2008,12,18,02,09,-3.80
2008,12,18,02,10,-3.80
2008,12,18,02,11,-3.80
2008,12,18,02,12,-3.80
2008,12,18,02,13,-3.80
2008,12,18,02,14,-3.80
2008,12,18,02,15,-3.80
2008,12,18,02,16,-3.80
2008,12,18,02,17,-3.90
2008,12,18,02,18,-3.90
2008,12,18,02,19,-3.90
2008,12,18,02,20,-3.90
2008,12,18,02,21,-3.90
2008,12,18,02,22,-3.90
2008,12,18,02,23,-3.90
2008,12,18,02,24,-3.90
2008,12,18,02,25,-3.90
2008,12,18,02,26,-3.90
2008,12,18,02,27,-4.00
2008,12,18,02,28,-4.00
2008,12,18,02,29,-4.00
2008,12,18,02,30,-4.00
2008,12,18,02,31,-4.00
2008,12,18,02,32,-4.00
2008,12,18,02,33,-4.00
2008,12,18,02,34,-4.00
2008,12,18,02,35,-4.00
2008,12,18,02,36,-4.00
2008,12,18,02,37,-4.00
2008,12,18,02,38,-4.00
2008,12,18,02,39,-4.00
2008,12,18,02,40,-4.00
2008,12,18,02,41,-4.00
2008,12,18,02,42,-4.00
2008,12,18,02,43,-4.00
2008,12,18,02,44,-4.00
2008,12,18,02,45,-4.10
2008,12,18,02,46,-4.10
2008,12,18,02,47,-4.10
2008,12,18,02,48,-4.10
2008,12,18,02,49,-4.10
2008,12,18,02,50,-4.10
2008,12,18,02,51,-4.10
2008,12,18,02,52,-4.10
2008,12,18,02,53,-4.10
2008,12,18,02,54,-4.10
2008,12,18,02,55,-4.10
2008,12,18,02,56,-4.10
2008,12,18,02,57,-4.10
2008,12,18,02,58,-4.10
2008,12,18,02,59,-4.10
2008,12,18,03,00,-4.10
2008,12,18,03,01,-4.10
2008,12,18,03,02,-4.10
2008,12,18,03,03,-4.10
2008,12,18,03,04,-4.10
2008,12,18,03,05,-4.10
2008,12,18,03,06,-4.20
2008,12,18,03,07,-4.20
2008,12,18,03,08,-4.20
2008,12,18,03,09,-4.20
2008,12,18,03,10,-4.20
2008,12,18,03,11,-4.20
2008,12,18,03,12,-4.20
2008,12,18,03,13,-4.20
2008,12,18,03,14,-4.20
2008,12,18,03,15,-4.20
2008,12,18,03,16,-4.20
2008,12,18,03,17,-4.20
2008,12,18,03,18,-4.20
2008,12,18,03,19,-4.20
2008,12,18,03,20,-4.20
2008,12,18,03,21,-4.20
2008,12,18,03,22,-4.20
2008,12,18,03,23,-4.20
2008,12,18,03,24,-4.20
2008,12,18,03,25,-4.20
2008,12,18,03,26,-4.20
2008,12,18,03,27,-4.20
2008,12,18,03,28,-4.20
2008,12,18,03,29,-4.20
2008,12,18,03,30,-4.20
2008,12,18,03,31,-4.20
2008,12,18,03,32,-4.20
2008,12,18,03,33,-4.20
2008,12,18,03,34,-4.20
2008,12,18,03,35,-4.20
2008,12,18,03,36,-4.20
2008,12,18,03,37,-4.20
2008,12,18,03,38,-4.20
2008,12,18,03,39,-4.20
2008,12,18,03,40,-4.20
2008,12,18,03,41,-4.20
2008,12,18,03,42,-4.20
2008,12,18,03,43,-4.20
2008,12,18,03,44,-4.20
2008,12,18,03,45,-4.20
2008,12,18,03,46,-4.20
2008,12,18,03,47,-4.20
2008,12,18,03,48,-4.20
2008,12,18,03,49,-4.20
2008,12,18,03,50,-4.20
2008,12,18,03,51,-4.20
2008,12,18,03,52,-4.20
2008,12,18,03,53,-4.20
2008,12,18,03,54,-4.20
2008,12,18,03,55,-4.20
2008,12,18,03,56,-4.20
2008,12,18,03,57,-4.30
2008,12,18,03,58,-4.30
2008,12,18,03,59,-4.30
2008,12,18,04,00,-4.30
2008,12,18,04,01,-4.40
2008,12,18,04,02,-4.40
2008,12,18,04,03,-4.40
2008,12,18,04,04,-4.40
2008,12,18,04,05,-4.50
2008,12,18,04,06,-4.50
2008,12,18,04,07,-4.50
2008,12,18,04,08,-4.50
2008,12,18,04,09,-4.50
2008,12,18,04,10,-4.60
2008,12,18,04,11,-4.60
2008,12,18,04,12,-4.60
2008,12,18,04,13,-4.70
2008,12,18,04,14,-4.70
2008,12,18,04,15,-4.70
2008,12,18,04,16,-4.70
2008,12,18,04,17,-4.70
2008,12,18,04,18,-4.80
2008,12,18,04,19,-4.80
2008,12,18,04,20,-4.80
2008,12,18,04,21,-4.90
2008,12,18,04,22,-4.90
2008,12,18,04,23,-5.00
2008,12,18,04,24,-5.00
2008,12,18,04,25,-5.10
2008,12,18,04,26,-5.10
2008,12,18,04,27,-5.20
2008,12,18,04,28,-5.20
2008,12,18,04,29,-5.20
2008,12,18,04,30,-5.30
2008,12,18,04,31,-5.30
2008,12,18,04,32,-5.30
2008,12,18,04,33,-5.30
2008,12,18,04,34,-5.30
2008,12,18,04,35,-5.30
2008,12,18,04,36,-5.40
2008,12,18,04,37,-5.40
2008,12,18,04,38,-5.40
2008,12,18,04,39,-5.40
2008,12,18,04,40,-5.40
2008,12,18,04,41,-5.40
2008,12,18,04,42,-5.50
2008,12,18,04,43,-5.50
2008,12,18,04,44,-5.50
2008,12,18,04,45,-5.50
2008,12,18,04,46,-5.50
2008,12,18,04,47,-5.60
2008,12,18,04,48,-5.60
2008,12,18,04,49,-5.60
2008,12,18,04,50,-5.70
2008,12,18,04,51,-5.70
2008,12,18,04,52,-5.70
2008,12,18,04,53,-5.70
2008,12,18,04,54,-5.80
2008,12,18,04,55,-5.80
2008,12,18,04,56,-5.80
2008,12,18,04,57,-5.90
2008,12,18,04,58,-5.90
2008,12,18,04,59,-5.90
2008,12,18,05,00,-5.90
2008,12,18,05,01,-5.90
2008,12,18,05,02,-5.90
2008,12,18,05,03,-6.00
2008,12,18,05,04,-6.10
2008,12,18,05,05,-6.10
2008,12,18,05,06,-6.10
2008,12,18,05,07,-6.10
2008,12,18,05,08,-6.10
2008,12,18,05,09,-6.10
2008,12,18,05,10,-6.10
2008,12,18,05,11,-6.10
2008,12,18,05,12,-6.10
2008,12,18,05,13,-6.10
2008,12,18,05,14,-6.20
2008,12,18,05,15,-6.20
2008,12,18,05,16,-6.20
2008,12,18,05,17,-6.20
2008,12,18,05,18,-6.20
2008,12,18,05,19,-6.20
2008,12,18,05,20,-6.20
2008,12,18,05,21,-6.20
2008,12,18,05,22,-6.20
2008,12,18,05,23,-6.20
2008,12,18,05,24,-6.20
2008,12,18,05,25,-6.20
2008,12,18,05,26,-6.20
2008,12,18,05,27,-6.20
2008,12,18,05,28,-6.20
2008,12,18,05,29,-6.20
2008,12,18,05,30,-6.20
2008,12,18,05,31,-6.20
2008,12,18,05,32,-6.20
2008,12,18,05,33,-6.20
2008,12,18,05,34,-6.20
2008,12,18,05,35,-6.20
2008,12,18,05,36,-6.20
2008,12,18,05,37,-6.30
2008,12,18,05,38,-6.30
2008,12,18,05,39,-6.30
2008,12,18,05,40,-6.30
2008,12,18,05,41,-6.30
2008,12,18,05,42,-6.30
2008,12,18,05,43,-6.30
2008,12,18,05,44,-6.30
2008,12,18,05,45,-6.30
2008,12,18,05,46,-6.30
2008,12,18,05,47,-6.20
2008,12,18,05,48,-6.20
2008,12,18,05,49,-6.20
2008,12,18,05,50,-6.20
2008,12,18,05,51,-6.20
2008,12,18,05,52,-6.20
2008,12,18,05,53,-6.20
2008,12,18,05,54,-6.30
2008,12,18,05,55,-6.30
2008,12,18,05,56,-6.30
2008,12,18,05,57,-6.30
2008,12,18,05,58,-6.40
2008,12,18,05,59,-6.40
2008,12,18,06,00,-6.40
2008,12,18,06,01,-6.50
2008,12,18,06,02,-6.50
2008,12,18,06,03,-6.60
2008,12,18,06,04,-6.60
2008,12,18,06,05,-6.60
2008,12,18,06,06,-6.60
2008,12,18,06,07,-6.60
2008,12,18,06,08,-6.60
2008,12,18,06,09,-6.60
2008,12,18,06,10,-6.60
2008,12,18,06,11,-6.60
2008,12,18,06,12,-6.60
2008,12,18,06,13,-6.60
2008,12,18,06,14,-6.60
2008,12,18,06,15,-6.70
2008,12,18,06,16,-6.70
2008,12,18,06,17,-6.70
2008,12,18,06,18,-6.70
2008,12,18,06,19,-6.70
2008,12,18,06,20,-6.70
2008,12,18,06,21,-6.80
2008,12,18,06,22,-6.80
2008,12,18,06,23,-6.80
2008,12,18,06,24,-6.90
2008,12,18,06,25,-6.90
2008,12,18,06,26,-6.90
2008,12,18,06,27,-7.00
2008,12,18,06,28,-7.00
2008,12,18,06,29,-7.00
2008,12,18,06,30,-7.10
2008,12,18,06,31,-7.10
2008,12,18,06,32,-7.10
2008,12,18,06,33,-7.20
2008,12,18,06,34,-7.20
2008,12,18,06,35,-7.20
2008,12,18,06,36,-7.30
2008,12,18,06,37,-7.30
2008,12,18,06,38,-7.30
2008,12,18,06,39,-7.30
2008,12,18,06,40,-7.30
2008,12,18,06,41,-7.30
2008,12,18,06,42,-7.40
2008,12,18,06,43,-7.40
2008,12,18,06,44,-7.40
2008,12,18,06,45,-7.40
2008,12,18,06,46,-7.40
2008,12,18,06,47,-7.40
2008,12,18,06,48,-7.40
2008,12,18,06,49,-7.40
2008,12,18,06,50,-7.40
2008,12,18,06,51,-7.40
2008,12,18,06,52,-7.40
2008,12,18,06,53,-7.40
2008,12,18,06,54,-7.40
2008,12,18,06,55,-7.40
2008,12,18,06,56,-7.40
2008,12,18,06,57,-7.40
2008,12,18,06,58,-7.40
2008,12,18,06,59,-7.40
2008,12,18,07,00,-7.40
2008,12,18,07,01,-7.40
2008,12,18,07,02,-7.40
2008,12,18,07,03,-7.40
2008,12,18,07,04,-7.40
2008,12,18,07,05,-7.50
2008,12,18,07,06,-7.60
2008,12,18,07,07,-7.60
2008,12,18,07,08,-7.60
2008,12,18,07,09,-7.60
2008,12,18,07,10,-7.60
2008,12,18,07,11,-7.60
2008,12,18,07,12,-7.60
2008,12,18,07,13,-7.60
2008,12,18,07,14,-7.60
2008,12,18,07,15,-7.60
2008,12,18,07,16,-7.60
2008,12,18,07,17,-7.60
2008,12,18,07,18,-7.60
2008,12,18,07,19,-7.60
2008,12,18,07,20,-7.60
2008,12,18,07,21,-7.60
2008,12,18,07,22,-7.60
2008,12,18,07,23,-7.60
2008,12,18,07,24,-7.60
2008,12,18,07,25,-7.60
2008,12,18,07,26,-7.60
2008,12,18,07,27,-7.70
2008,12,18,07,28,-7.70
2008,12,18,07,29,-7.70
2008,12,18,07,30,-7.70
2008,12,18,07,31,-7.70
2008,12,18,07,32,-7.70
2008,12,18,07,33,-7.70
2008,12,18,07,34,-7.80
2008,12,18,07,35,-7.80
2008,12,18,07,36,-7.80
2008,12,18,07,37,-7.80
2008,12,18,07,38,-7.80
2008,12,18,07,39,-7.70
2008,12,18,07,40,-7.70
2008,12,18,07,41,-7.70
2008,12,18,07,42,-7.70
2008,12,18,07,43,-7.70
2008,12,18,07,44,-7.80
2008,12,18,07,45,-7.80
2008,12,18,07,46,-7.80
2008,12,18,07,47,-7.80
2008,12,18,07,48,-7.80
2008,12,18,07,49,-7.80
2008,12,18,07,50,-7.80
2008,12,18,07,51,-7.80
2008,12,18,07,52,-7.80
2008,12,18,07,53,-7.80
2008,12,18,07,54,-7.80
2008,12,18,07,55,-7.80
2008,12,18,07,56,-7.80
2008,12,18,07,57,-7.80
2008,12,18,07,58,-7.80
2008,12,18,07,59,-7.80
2008,12,18,08,00,-7.80
2008,12,18,08,01,-7.80
2008,12,18,08,02,-7.80
2008,12,18,08,03,-7.80
2008,12,18,08,04,-7.80
2008,12,18,08,05,-7.80
2008,12,18,08,06,-7.80
2008,12,18,08,07,-7.80
2008,12,18,08,08,-7.80
2008,12,18,08,09,-7.80
2008,12,18,08,10,-7.80
2008,12,18,08,11,-7.70
2008,12,18,08,12,-7.70
2008,12,18,08,13,-7.70
2008,12,18,08,14,-7.70
2008,12,18,08,15,-7.60
2008,12,18,08,16,-7.60
2008,12,18,08,17,-7.60
2008,12,18,08,18,-7.60
2008,12,18,08,19,-7.60
2008,12,18,08,20,-7.60
2008,12,18,08,21,-7.60
2008,12,18,08,22,-7.60
2008,12,18,08,23,-7.60
2008,12,18,08,24,-7.60
2008,12,18,08,25,-7.60
2008,12,18,08,26,-7.60
2008,12,18,08,27,-7.60
2008,12,18,08,28,-7.60
2008,12,18,08,29,-7.60
2008,12,18,08,30,-7.60
2008,12,18,08,31,-7.60
2008,12,18,08,32,-7.60
2008,12,18,08,33,-7.60
2008,12,18,08,34,-7.60
2008,12,18,08,35,-7.60
2008,12,18,08,36,-7.60
2008,12,18,08,37,-7.60
2008,12,18,08,38,-7.60
2008,12,18,08,39,-7.60
2008,12,18,08,40,-7.60
2008,12,18,08,41,-7.60
2008,12,18,08,42,-7.60
2008,12,18,08,43,-7.60
2008,12,18,08,44,-7.60
2008,12,18,08,45,-7.60
2008,12,18,08,46,-7.50
2008,12,18,08,47,-7.40
2008,12,18,08,48,-7.40
2008,12,18,08,49,-7.40
2008,12,18,08,50,-7.40
2008,12,18,10,22,-7.80
2008,12,18,10,23,-7.80
2008,12,18,10,24,-7.80
2008,12,18,10,25,-7.80
2008,12,18,10,26,-7.80
2008,12,18,10,27,-7.80
2008,12,18,10,28,-7.80
2008,12,18,10,29,-7.80
2008,12,18,10,30,-7.80
2008,12,18,10,31,-7.70
2008,12,18,10,32,-7.70
2008,12,18,10,33,-7.70
2008,12,18,10,34,-7.70
2008,12,18,10,35,-7.60
2008,12,18,10,36,-7.60
2008,12,18,10,37,-7.60
2008,12,18,10,38,-7.60
2008,12,18,10,39,-7.60
2008,12,18,10,40,-7.60
2008,12,18,10,41,-7.60
2008,12,18,10,42,-7.60
2008,12,18,10,43,-7.60
2008,12,18,10,44,-7.60
2008,12,18,10,45,-7.60
2008,12,18,10,46,-7.50
2008,12,18,10,47,-7.50
2008,12,18,10,48,-7.40
2008,12,18,10,49,-7.40
2008,12,18,10,50,-7.40
2008,12,18,10,51,-7.40
2008,12,18,10,52,-7.40
2008,12,18,10,53,-7.30
2008,12,18,10,54,-7.30
2008,12,18,10,55,-7.20
2008,12,18,10,56,-7.20
2008,12,18,10,57,-7.10
2008,12,18,10,58,-7.00
2008,12,18,10,59,-7.00
2008,12,18,11,00,-6.90
2008,12,18,11,01,-6.80
2008,12,18,11,02,-6.70
2008,12,18,11,03,-6.70
2008,12,18,11,04,-6.60
2008,12,18,11,05,-6.50
2008,12,18,11,06,-6.40
2008,12,18,11,07,-6.30
2008,12,18,11,08,-6.30
2008,12,18,11,09,-6.10
2008,12,18,11,10,-6.00
2008,12,18,11,11,-5.90
2008,12,18,11,12,-5.80
2008,12,18,11,13,-5.70
2008,12,18,11,14,-5.60
2008,12,18,11,15,-5.50
2008,12,18,11,16,-5.40
2008,12,18,11,17,-5.40
2008,12,18,11,18,-5.30
2008,12,18,11,19,-5.20
2008,12,18,11,20,-5.10
2008,12,18,11,21,-5.00
2008,12,18,11,22,-5.00
2008,12,18,11,23,-4.90
2008,12,18,11,24,-4.80
2008,12,18,11,25,-4.70
2008,12,18,11,26,-4.70
2008,12,18,11,27,-4.60
2008,12,18,11,28,-4.60
2008,12,18,11,29,-4.70
2008,12,18,11,30,-4.70
2008,12,18,11,31,-4.70
2008,12,18,11,32,-4.70
2008,12,18,11,33,-4.70
2008,12,18,11,34,-4.70
2008,12,18,11,35,-4.70
2008,12,18,11,36,-4.70
2008,12,18,11,37,-4.70
2008,12,18,11,38,-4.70
2008,12,18,11,39,-4.70
2008,12,18,11,40,-4.60
2008,12,18,11,41,-4.60
2008,12,18,11,42,-4.50
2008,12,18,11,43,-4.50
2008,12,18,11,44,-4.50
2008,12,18,11,45,-4.50
2008,12,18,11,46,-4.50
2008,12,18,11,47,-4.50
2008,12,18,11,48,-4.60
2008,12,18,11,49,-4.70
2008,12,18,11,50,-4.70
2008,12,18,11,51,-4.70
2008,12,18,11,52,-4.70
2008,12,18,11,53,-4.70
2008,12,18,11,54,-4.80
2008,12,18,11,55,-4.80
2008,12,18,11,56,-4.80
2008,12,18,11,57,-4.90
2008,12,18,11,58,-4.90
2008,12,18,11,59,-4.90
2008,12,18,12,00,-4.90
2008,12,18,12,01,-4.90
2008,12,18,12,02,-4.90
2008,12,18,12,03,-4.90
2008,12,18,12,04,-4.80
2008,12,18,12,05,-4.80
2008,12,18,12,06,-4.80
2008,12,18,12,07,-4.70
2008,12,18,12,08,-4.70
2008,12,18,12,09,-4.70
2008,12,18,12,10,-4.60
2008,12,18,12,11,-4.50
2008,12,18,12,12,-4.40
2008,12,18,12,13,-4.40
2008,12,18,12,14,-4.30
2008,12,18,12,15,-4.30
2008,12,18,12,16,-4.30
2008,12,18,12,17,-4.30
2008,12,18,12,18,-4.30
2008,12,18,12,19,-4.20
2008,12,18,12,20,-4.20
2008,12,18,12,21,-4.20
2008,12,18,12,22,-4.20
2008,12,18,12,23,-4.20
2008,12,18,12,24,-4.20
2008,12,18,12,25,-4.20
2008,12,18,12,26,-4.20
2008,12,18,12,27,-4.20
2008,12,18,12,28,-4.20
2008,12,18,12,29,-4.20
2008,12,18,12,30,-4.20
2008,12,18,12,31,-4.20
2008,12,18,12,32,-4.20
2008,12,18,12,33,-4.20
2008,12,18,12,34,-4.10
2008,12,18,12,35,-4.10
2008,12,18,12,36,-4.10
2008,12,18,12,37,-4.10
2008,12,18,12,38,-4.10
2008,12,18,12,39,-4.10
2008,12,18,12,40,-4.20
2008,12,18,12,41,-4.20
2008,12,18,12,42,-4.10
2008,12,18,12,43,-4.10
2008,12,18,12,44,-4.10
2008,12,18,12,45,-4.10
2008,12,18,12,46,-4.10
2008,12,18,12,47,-4.10
2008,12,18,12,48,-4.10
2008,12,18,12,49,-4.00
2008,12,18,12,50,-4.00
2008,12,18,12,51,-4.00
2008,12,18,12,52,-4.00
2008,12,18,12,53,-3.90
2008,12,18,12,54,-3.90
2008,12,18,12,55,-3.90
2008,12,18,12,56,-3.90
2008,12,18,12,57,-3.80
2008,12,18,12,58,-3.80
2008,12,18,12,59,-3.80
2008,12,18,13,00,-3.70
2008,12,18,13,01,-3.70
2008,12,18,13,02,-3.70
2008,12,18,13,03,-3.70
2008,12,18,13,04,-3.70
2008,12,18,13,05,-3.70
2008,12,18,13,06,-3.70
2008,12,18,13,07,-3.70
2008,12,18,13,08,-3.70
2008,12,18,13,09,-3.70
2008,12,18,13,10,-3.80
2008,12,18,13,11,-3.80
2008,12,18,13,12,-3.90
2008,12,18,13,13,-3.90
2008,12,18,13,14,-3.90
2008,12,18,13,15,-3.90
2008,12,18,13,16,-4.00
2008,12,18,13,17,-4.00
2008,12,18,13,18,-4.00
2008,12,18,13,19,-4.10
2008,12,18,13,20,-4.10
2008,12,18,13,21,-4.10
2008,12,18,13,22,-4.10
2008,12,18,13,23,-4.20
2008,12,18,13,24,-4.20
2008,12,18,13,25,-4.20
2008,12,18,13,26,-4.20
2008,12,18,13,27,-4.20
2008,12,18,13,28,-4.20
2008,12,18,13,29,-4.20
2008,12,18,13,30,-4.20
2008,12,18,13,31,-4.20
2008,12,18,13,32,-4.20
2008,12,18,13,33,-4.20
2008,12,18,13,34,-4.20
2008,12,18,13,35,-4.20
2008,12,18,13,36,-4.20
2008,12,18,13,37,-4.20
2008,12,18,13,38,-4.30
2008,12,18,13,39,-4.30
2008,12,18,13,40,-4.30
2008,12,18,13,41,-4.30
2008,12,18,13,42,-4.30
2008,12,18,13,43,-4.30
2008,12,18,13,44,-4.30
2008,12,18,13,45,-4.30
2008,12,18,13,46,-4.30
2008,12,18,13,47,-4.30
2008,12,18,13,48,-4.30
2008,12,18,13,49,-4.40
2008,12,18,13,50,-4.40
2008,12,18,13,51,-4.40
2008,12,18,13,52,-4.40
2008,12,18,13,53,-4.40
2008,12,18,13,54,-4.40
2008,12,18,13,55,-4.40
2008,12,18,13,56,-4.40
2008,12,18,13,57,-4.40
2008,12,18,13,58,-4.40
2008,12,18,13,59,-4.40
2008,12,18,14,00,-4.50
2008,12,18,14,01,-4.50
2008,12,18,14,02,-4.50
2008,12,18,14,03,-4.50
2008,12,18,14,04,-4.50
2008,12,18,14,05,-4.50
2008,12,18,14,06,-4.50
2008,12,18,14,07,-4.50
2008,12,18,14,08,-4.50
2008,12,18,14,09,-4.50
2008,12,18,14,10,-4.50
2008,12,18,14,11,-4.50
2008,12,18,14,12,-4.60
2008,12,18,14,13,-4.60
2008,12,18,14,14,-4.60
2008,12,18,14,15,-4.60
2008,12,18,14,16,-4.60
2008,12,18,14,17,-4.60
2008,12,18,14,18,-4.60
2008,12,18,14,19,-4.60
2008,12,18,14,20,-4.60
2008,12,18,14,21,-4.60
2008,12,18,14,22,-4.60
2008,12,18,14,23,-4.60
2008,12,18,14,24,-4.60
2008,12,18,14,25,-4.60
2008,12,18,14,26,-4.60
2008,12,18,14,27,-4.60
2008,12,18,14,28,-4.60
2008,12,18,14,29,-4.60
2008,12,18,14,30,-4.60
2008,12,18,14,31,-4.60
2008,12,18,14,32,-4.60
2008,12,18,14,33,-4.60
2008,12,18,14,34,-4.60
2008,12,18,14,35,-4.60
2008,12,18,14,36,-4.60
2008,12,18,14,37,-4.60
2008,12,18,14,38,-4.60
2008,12,18,14,39,-4.60
2008,12,18,14,40,-4.60
2008,12,18,14,41,-4.60
2008,12,18,14,42,-4.70
2008,12,18,14,43,-4.60
2008,12,18,14,44,-4.60
2008,12,18,14,45,-4.60
2008,12,18,14,46,-4.60
2008,12,18,14,47,-4.60
2008,12,18,14,48,-4.60
2008,12,18,14,49,-4.60
2008,12,18,14,50,-4.60
2008,12,18,14,51,-4.60
2008,12,18,14,52,-4.60
2008,12,18,14,53,-4.60
2008,12,18,14,54,-4.60
2008,12,18,14,55,-4.60
2008,12,18,14,56,-4.60
2008,12,18,14,57,-4.60
2008,12,18,14,58,-4.60
2008,12,18,14,59,-4.60
2008,12,18,15,00,-4.60
2008,12,18,15,01,-4.60
2008,12,18,15,02,-4.60
2008,12,18,15,03,-4.60
2008,12,18,15,04,-4.60
2008,12,18,15,05,-4.60
2008,12,18,15,06,-4.60
2008,12,18,15,07,-4.60
2008,12,18,15,08,-4.60
2008,12,18,15,09,-4.60
2008,12,18,15,10,-4.60
2008,12,18,15,11,-4.60
2008,12,18,15,12,-4.60
2008,12,18,15,13,-4.60
2008,12,18,15,14,-4.60
2008,12,18,15,15,-4.60
2008,12,18,15,16,-4.60
2008,12,18,15,17,-4.60
2008,12,18,15,18,-4.60
2008,12,18,15,19,-4.60
2008,12,18,15,20,-4.60
2008,12,18,15,21,-4.60
2008,12,18,15,22,-4.50
2008,12,18,15,23,-4.50
2008,12,18,15,24,-4.50
2008,12,18,15,25,-4.40
2008,12,18,15,26,-4.30
2008,12,18,15,27,-4.30
2008,12,18,15,28,-4.30
2008,12,18,15,29,-4.20
2008,12,18,15,30,-4.20
2008,12,18,15,31,-4.20
2008,12,18,15,32,-4.20
2008,12,18,15,33,-4.20
2008,12,18,15,34,-4.20
2008,12,18,15,35,-4.30
2008,12,18,15,36,-4.30
2008,12,18,15,37,-4.30
2008,12,18,15,38,-4.30
2008,12,18,15,39,-4.40
2008,12,18,15,40,-4.40
2008,12,18,15,41,-4.40
2008,12,18,15,42,-4.40
2008,12,18,15,43,-4.50
2008,12,18,15,44,-4.50
2008,12,18,15,45,-4.50
2008,12,18,15,46,-4.60
2008,12,18,15,47,-4.60
2008,12,18,15,48,-4.60
2008,12,18,15,49,-4.70
2008,12,18,15,50,-4.70
2008,12,18,15,51,-4.70
2008,12,18,15,52,-4.70
2008,12,18,15,53,-4.70
2008,12,18,15,54,-4.70
2008,12,18,15,55,-4.70
2008,12,18,15,56,-4.70
2008,12,18,15,57,-4.70
2008,12,18,15,58,-4.70
2008,12,18,15,59,-4.70
2008,12,18,16,00,-4.80
2008,12,18,16,01,-4.80
2008,12,18,16,02,-4.80
2008,12,18,16,03,-4.80
2008,12,18,16,04,-4.80
2008,12,18,16,05,-4.80
2008,12,18,16,06,-4.80
2008,12,18,16,07,-4.80
2008,12,18,16,08,-4.80
2008,12,18,16,09,-4.80
2008,12,18,16,10,-4.80
2008,12,18,16,11,-4.80
2008,12,18,16,12,-4.80
2008,12,18,16,13,-4.80
2008,12,18,16,14,-4.80
2008,12,18,16,15,-4.80
2008,12,18,16,16,-4.80
2008,12,18,16,17,-4.80
2008,12,18,16,18,-4.80
2008,12,18,16,19,-4.80
2008,12,18,16,20,-4.80
2008,12,18,16,21,-4.80
2008,12,18,16,22,-4.80
2008,12,18,16,23,-4.80
2008,12,18,16,24,-4.80
2008,12,18,16,25,-4.80
2008,12,18,16,26,-4.80
2008,12,18,16,27,-4.80
2008,12,18,16,28,-4.80
2008,12,18,16,29,-4.80
2008,12,18,16,30,-4.90
2008,12,18,16,31,-4.90
2008,12,18,16,32,-4.90
2008,12,18,16,33,-4.90
2008,12,18,16,34,-4.90
2008,12,18,16,35,-4.90
2008,12,18,16,36,-4.90
2008,12,18,16,37,-5.00
2008,12,18,16,38,-5.00
2008,12,18,16,39,-5.00
2008,12,18,16,40,-5.00
2008,12,18,16,41,-5.10
2008,12,18,16,42,-5.10
2008,12,18,16,43,-5.10
2008,12,18,16,44,-5.10
2008,12,18,16,45,-5.10
2008,12,18,16,46,-5.20
2008,12,18,16,47,-5.20
2008,12,18,16,48,-5.30
2008,12,18,16,49,-5.30
2008,12,18,16,50,-5.30
2008,12,18,16,51,-5.30
2008,12,18,16,52,-5.30
2008,12,18,16,53,-5.40
2008,12,18,16,54,-5.40
2008,12,18,16,55,-5.50
2008,12,18,16,56,-5.50
2008,12,18,16,57,-5.60
2008,12,18,16,58,-5.60
2008,12,18,16,59,-5.70
2008,12,18,17,00,-5.70
2008,12,18,17,01,-5.70
2008,12,18,17,02,-5.80
2008,12,18,17,03,-5.80
2008,12,18,17,04,-5.80
2008,12,18,17,05,-5.90
2008,12,18,17,06,-5.90
2008,12,18,17,07,-5.90
2008,12,18,17,08,-5.90
2008,12,18,17,09,-6.00
2008,12,18,17,10,-6.10
2008,12,18,17,11,-6.10
2008,12,18,17,12,-6.10
2008,12,18,17,13,-6.10
2008,12,18,17,14,-6.10
2008,12,18,17,15,-6.10
2008,12,18,17,16,-6.10
2008,12,18,17,17,-6.10
2008,12,18,17,18,-6.10
2008,12,18,17,19,-6.20
2008,12,18,17,20,-6.20
2008,12,18,17,21,-6.20
2008,12,18,17,22,-6.20
2008,12,18,17,23,-6.20
2008,12,18,17,24,-6.20
2008,12,18,17,25,-6.30
2008,12,18,17,26,-6.30
2008,12,18,17,27,-6.30
2008,12,18,17,28,-6.30
2008,12,18,17,29,-6.40
2008,12,18,17,30,-6.40
2008,12,18,17,31,-6.40
2008,12,18,17,32,-6.40
2008,12,18,17,33,-6.50
2008,12,18,17,34,-6.50
2008,12,18,17,35,-6.50
2008,12,18,17,36,-6.60
2008,12,18,17,37,-6.60
2008,12,18,17,38,-6.70
2008,12,18,17,39,-6.70
2008,12,18,17,40,-6.70
2008,12,18,17,41,-6.80
2008,12,18,17,42,-6.80
2008,12,18,17,43,-6.90
2008,12,18,17,44,-7.00
2008,12,18,17,45,-7.00
2008,12,18,17,46,-7.00
2008,12,18,17,47,-7.10
2008,12,18,17,48,-7.10
2008,12,18,17,49,-7.10
2008,12,18,17,50,-7.20
2008,12,18,17,51,-7.20
2008,12,18,17,52,-7.20
2008,12,18,17,53,-7.30
2008,12,18,17,54,-7.30
2008,12,18,17,55,-7.30
2008,12,18,17,56,-7.30
2008,12,18,17,57,-7.40
2008,12,18,17,58,-7.40
2008,12,18,17,59,-7.40
2008,12,18,18,00,-7.40
2008,12,18,18,01,-7.40
2008,12,18,18,02,-7.40
2008,12,18,18,03,-7.40
2008,12,18,18,04,-7.40
2008,12,18,18,05,-7.50
2008,12,18,18,06,-7.60
2008,12,18,18,07,-7.60
2008,12,18,18,08,-7.60
2008,12,18,18,09,-7.60
2008,12,18,18,10,-7.60
2008,12,18,18,11,-7.60
2008,12,18,18,12,-7.60
2008,12,18,18,13,-7.60
2008,12,18,18,14,-7.60
2008,12,18,18,15,-7.60
2008,12,18,18,16,-7.60
2008,12,18,18,17,-7.60
2008,12,18,18,18,-7.60
2008,12,18,18,19,-7.60
2008,12,18,18,20,-7.60
2008,12,18,18,21,-7.60
2008,12,18,18,22,-7.60
2008,12,18,18,23,-7.60
2008,12,18,18,24,-7.60
2008,12,18,18,25,-7.60
2008,12,18,18,26,-7.70
2008,12,18,18,27,-7.70
2008,12,18,18,28,-7.70
2008,12,18,18,29,-7.70
2008,12,18,18,30,-7.70
2008,12,18,18,31,-7.70
2008,12,18,18,32,-7.70
2008,12,18,18,33,-7.70
2008,12,18,18,34,-7.70
2008,12,18,18,35,-7.70
2008,12,18,18,36,-7.80
2008,12,18,18,37,-7.80
2008,12,18,18,38,-7.80
2008,12,18,18,39,-7.80
2008,12,18,18,40,-7.80
2008,12,18,18,41,-7.80
2008,12,18,18,42,-7.80
2008,12,18,18,43,-7.80
2008,12,18,18,44,-7.80
2008,12,18,18,45,-7.80
2008,12,18,18,46,-7.80
2008,12,18,18,47,-7.90
2008,12,18,18,48,-7.90
2008,12,18,18,49,-7.90
2008,12,18,18,50,-7.90
2008,12,18,18,51,-7.90
2008,12,18,18,52,-7.90
2008,12,18,18,53,-7.90
2008,12,18,18,54,-7.90
2008,12,18,18,55,-7.90
2008,12,18,18,56,-7.90
2008,12,18,18,57,-7.90
2008,12,18,18,58,-8.00
2008,12,18,18,59,-8.10
2008,12,18,19,00,-8.10
2008,12,18,19,01,-8.10
2008,12,18,19,02,-8.00
2008,12,18,19,03,-7.90
2008,12,18,19,04,-7.90
2008,12,18,19,05,-7.90
2008,12,18,19,06,-7.90
2008,12,18,19,07,-7.90
2008,12,18,19,08,-7.80
2008,12,18,19,09,-7.80
2008,12,18,19,10,-7.80
2008,12,18,19,11,-7.80
2008,12,18,19,12,-7.70
2008,12,18,19,13,-7.70
2008,12,18,19,14,-7.70
2008,12,18,19,15,-7.60
2008,12,18,19,16,-7.60
2008,12,18,19,17,-7.60
2008,12,18,19,18,-7.60
2008,12,18,19,19,-7.60
2008,12,18,19,20,-7.50
2008,12,18,19,21,-7.40
2008,12,18,19,22,-7.40
2008,12,18,19,23,-7.40
2008,12,18,19,24,-7.40
2008,12,18,19,25,-7.40
2008,12,18,19,26,-7.40
2008,12,18,19,27,-7.40
2008,12,18,19,28,-7.30
2008,12,18,19,29,-7.30
2008,12,18,19,30,-7.30
2008,12,18,19,31,-7.30
2008,12,18,19,32,-7.30
2008,12,18,19,33,-7.30
2008,12,18,19,34,-7.30
2008,12,18,19,35,-7.20
2008,12,18,19,36,-7.20
2008,12,18,19,37,-7.10
2008,12,18,19,38,-7.10
2008,12,18,19,39,-7.10